Wind_Speed
2 3 4 5 6 7 7 7 8 7 8 8 8 9 9 10 11 12 13 14 16 18 20 21 22 22 22 21 18 16 14 13 14 14 13 12 11 11 11 10 9 9 9 9 9 9 9 8 8 9 9 9 10 10 10 11 11 11 11 12 12 12 12 11 11 10 9 8 7 7 6 6 6 5 5 5 5 4 4 4 4 4 4 4 4
1 2 4 5 7 8 8 8 8 8 8 8 9 10 10 11 12 13 14 15 17 19 20 21 22 22 22 21 18 15 13 12 13 13 13 12 11 10 10 10 8 8 8 8 8 8 8 8 8 7 8 8 9 9 10 10 11 11 11 11 11 11 11 10 10 10 10 9 8 7 7 6 6 6 5 5 5 4 4 4 4 4 4 4 5
1 2 4 6 7 8 8 9 9 9 9 9 10 10 11 12 12 14 15 16 17 19 21 22 22 22 22 20 17 14 12 11 12 13 12 11 11 10 10 9 8 7 7 7 7 7 7 7 7 7 7 7 8 9 9 10 10 10 10 9 9 9 9 9 9 9 9 9 8 7 7 6 6 6 5 5 5 4 3 3 3 3 4 4 5
1 2 4 6 7 8 9 9 9 9 9 10 10 11 12 13 13 15 16 17 18 20 22 23 23 22 21 19 16 13 11 10 11 12 12 11 11 10 10 9 8 7 6 6 6 6 6 6 7 7 7 7 8 8 9 9 10 9 9 9 9 9 8 9 9 8 8 8 8 7 6 6 6 5 5 5 4 4 3 3 3 3 4 4 5
3 4 4 6 8 9 10 10 10 10 10 11 11 12 12 13 14 15 16 18 20 22 23 24 24 22 21 18 14 12 10 9 10 11 11 11 10 10 10 9 8 8 6 5 5 5 5 5 6 6 6 7 7 8 8 8 8 8 8 8 9 9 9 9 9 8 8 7 7 6 6 6 5 4 4 4 4 4 4 4 4 4 4 5 5
4 4 3 5 8 10 10 11 12 12 12 12 12 13 13 14 15 16 17 19 22 24 25 25 24 23 20 18 14 11 9 9 9 10 10 11 10 10 10 9 8 8 7 6 5 5 5 4 5 5 5 6 6 7 7 7 7 8 8 8 8 8 8 8 8 8 7 7 6 6 5 5 4 4 4 4 4 4 5 5 5 6 6 6 7
4 4 3 5 8 9 11 12 13 14 14 14 14 15 15 15 16 17 19 21 23 25 26 26 25 23 20 18 13 10 8 8 8 9 10 10 10 10 9 9 8 7 7 6 6 5 5 4 4 4 4 4 4 5 6 6 7 7 7 7 7 7 7 7 7 7 6 6 6 5 5 4 4 4 4 4 4 4 5 5 6 6 7 7 8
2 3 2 4 6 8 10 12 13 15 15 16 16 17 17 18 19 20 21 23 24 26 27 27 26 23 21 18 14 10 8 7 8 8 9 10 10 10 9 9 8 7 6 6 6 6 5 5 4 4 3 3 3 4 5 5 6 6 6 6 6 6 6 6 6 6 5 5 6 5 5 4 4 4 4 4 5 5 5 6 6 7 7 8 8
1 1 0 2 3 6 8 10 13 15 16 17 17 18 19 20 21 22 23 25 26 26 26 27 26 24 21 19 15 10 8 7 7 8 8 9 10 10 9 9 8 7 6 6 6 7 6 6 5 5 4 4 4 4 4 5 6 6 5 5 5 5 6 6 6 6 6 6 6 6 6 5 5 6 6 6 6 7 7 8 8 8 9 9 9
2 3 2 2 1 4 7 11 13 15 16 16 17 18 20 21 23 23 24 26 26 26 26 27 26 24 22 19 15 10 9 8 7 7 8 8 9 9 9 9 8 8 7 6 6 7 7 6 6 5 5 4 4 4 4 4 5 5 5 5 5 6 6 7 8 7 7 7 6 6 6 6 6 7 7 7 8 8 9 9 10 10 10 10 10
2 4 4 5 4 6 9 12 14 16 16 16 16 18 19 21 23 24 25 26 27 26 25 26 26 24 22 20 16 11 9 8 7 7 7 8 8 9 9 9 9 8 7 7 7 7 7 7 7 7 6 5 4 4 4 4 5 5 5 6 6 6 7 8 8 7 7 7 6 6 5 5 5 6 7 8 8 9 9 10 10 11 11 11 11
5 7 6 6 7 9 12 14 16 16 16 16 16 17 19 21 22 24 25 26 26 26 25 26 25 23 22 20 16 11 10 9 8 8 7 7 8 9 9 9 9 9 8 7 7 7 8 8 8 9 8 7 6 5 5 5 6 6 6 6 6 7 7 7 7 6 6 7 6 6 6 6 6 6 6 7 8 8 9 10 10 10 11 11 11
9 11 11 9 11 13 15 16 17 16 16 16 17 17 19 20 22 23 24 26 26 26 26 26 25 23 22 20 17 12 10 10 9 8 8 8 8 9 9 9 9 9 9 8 8 8 8 8 9 9 9 8 7 6 6 6 6 6 6 6 6 6 6 6 6 6 7 8 7 7 7 6 7 7 7 8 8 9 9 10 10 10 10 10 10
11 14 16 14 14 16 17 17 17 17 17 17 17 17 18 20 22 23 24 25 26 26 26 26 24 22 22 21 18 14 11 11 10 9 9 9 8 9 9 9 10 10 10 9 9 8 8 8 8 8 8 7 6 6 5 5 6 6 6 5 5 5 6 6 6 7 7 7 7 8 7 7 8 9 9 9 10 10 11 11 12 12 12 12 11
13 16 19 18 17 18 18 18 18 17 17 17 17 17 18 20 22 23 24 25 26 26 27 26 23 21 21 20 19 15 12 12 11 10 10 10 9 9 9 9 10 10 10 10 9 9 9 8 8 8 7 6 5 5 5 5 6 6 6 6 6 6 6 6 7 7 7 7 8 9 9 8 9 10 10 11 12 13 13 14 14 14 14 14 14
15 18 21 21 19 18 19 19 19 18 18 18 17 17 17 18 21 23 24 25 25 26 26 26 23 21 21 20 18 16 14 13 12 11 11 11 10 9 10 10 10 10 11 11 11 10 9 9 9 8 7 6 5 5 5 5 6 6 7 7 7 7 7 7 8 8 8 9 9 10 10 10 11 12 13 13 14 14 15 15 15 15 15 16 16
18 19 21 22 20 19 19 19 20 20 19 19 18 17 17 18 20 23 24 24 25 26 26 26 23 20 20 19 18 16 15 14 13 12 13 12 11 10 10 10 10 10 11 12 12 11 11 10 9 9 8 7 5 5 5 5 5 6 6 6 7 7 8 8 9 9 9 10 11 12 12 12 13 13 14 14 15 16 16 16 16 17 17 17 18
21 20 22 23 21 20 20 20 21 21 20 20 19 18 17 17 20 22 24 24 25 26 26 26 24 20 20 20 18 15 15 15 14 13 14 14 12 11 10 10 10 11 12 12 13 13 13 12 11 11 10 8 7 5 5 5 5 5 5 5 6 7 8 8 9 10 10 11 12 13 13 13 14 14 14 15 15 16 16 17 17 18 18 18 19
25 24 25 26 24 22 21 21 22 22 21 20 19 19 18 18 20 22 23 25 25 26 27 26 24 21 20 21 19 16 14 15 15 14 15 15 14 12 11 10 10 10 11 12 13 14 15 14 13 13 13 12 9 7 6 7 7 6 6 6 7 8 8 9 10 11 12 12 13 13 14 14 15 15 15 16 16 16 17 17 18 19 19 20 20
27 26 27 27 27 24 22 22 23 23 22 21 20 19 19 18 20 22 24 25 26 26 27 27 25 22 21 22 22 18 15 15 15 15 16 16 15 14 11 10 9 10 11 12 13 15 16 15 14 14 14 14 12 10 8 8 9 9 9 9 9 10 9 10 11 12 13 13 13 13 13 14 14 15 15 16 16 17 17 18 19 20 21 21 21
28 26 26 26 27 25 23 23 24 23 22 22 21 20 20 19 21 23 24 25 26 27 27 27 25 23 22 22 23 21 18 16 16 16 17 18 16 15 12 10 9 9 11 12 13 14 15 15 15 14 15 15 14 12 11 10 10 10 10 10 11 11 11 11 12 13 13 14 14 13 13 14 14 15 15 16 17 17 18 19 19 21 21 22 22
28 27 24 24 25 24 23 23 24 23 23 22 21 21 20 20 21 23 25 26 27 27 27 28 25 23 23 23 24 23 20 17 17 17 18 19 17 16 13 11 10 9 11 12 13 14 15 15 15 14 14 15 14 13 12 12 11 11 11 11 11 12 12 12 12 13 13 14 13 13 14 14 14 15 16 16 17 17 18 19 21 22 23 23 24
28 27 25 23 23 23 22 23 24 24 23 22 21 21 21 21 22 23 25 27 28 27 28 27 25 24 24 24 24 23 21 19 18 18 19 20 18 17 14 12 11 10 10 12 13 14 15 14 14 13 13 14 13 12 12 12 12 12 12 13 12 12 12 12 12 12 13 13 14 13 14 14 15 15 16 17 18 19 20 21 22 23 23 24 24
30 28 26 24 23 22 22 23 24 24 23 22 22 21 22 22 22 25 26 28 28 27 27 26 24 24 24 24 23 22 21 20 19 19 20 21 20 19 16 13 12 11 11 11 13 14 15 14 13 12 11 11 12 12 12 12 12 13 13 14 14 13 13 13 12 12 12 13 13 13 13 14 14 15 16 17 18 19 20 21 22 23 23 24 24
30 28 26 25 24 23 22 23 23 23 24 23 23 22 22 23 23 26 27 29 28 27 27 25 23 24 24 23 22 22 22 22 21 20 20 21 21 20 17 14 14 13 12 12 13 15 15 14 13 11 10 10 11 11 12 12 12 12 13 14 14 14 13 13 12 11 12 12 12 12 13 14 14 15 16 17 18 19 20 21 22 22 23 24 25
29 28 26 25 24 24 23 23 23 23 25 24 24 23 23 24 25 27 29 30 28 26 26 23 23 24 24 22 21 22 22 23 22 21 21 21 21 21 18 16 15 14 13 13 14 14 15 15 13 10 9 9 10 11 12 13 13 13 13 13 14 14 14 14 13 12 12 12 12 12 13 14 14 15 16 17 18 19 20 21 22 23 24 25 26
28 28 26 26 25 25 24 24 23 24 25 25 24 25 25 25 26 28 30 30 27 25 25 23 22 23 23 22 21 22 23 23 24 23 22 21 21 21 19 17 17 16 14 15 15 15 15 14 12 10 9 9 11 12 13 13 13 14 14 14 14 14 14 14 13 12 12 12 12 13 13 14 14 15 16 17 18 19 21 22 23 25 26 27 27
29 28 26 25 25 26 26 25 24 25 26 26 26 26 26 27 28 30 31 30 26 24 23 23 22 22 22 22 22 22 23 24 25 24 22 21 21 21 20 19 18 17 15 16 17 16 15 13 11 11 12 12 12 13 14 14 14 14 14 14 14 14 14 14 13 12 13 12 12 12 13 14 15 15 16 18 19 20 22 24 25 27 28 28 29
29 28 26 25 26 27 27 26 25 26 27 27 28 29 29 29 30 31 31 29 26 23 23 24 23 22 22 23 23 23 23 24 25 24 22 21 20 21 21 20 19 18 16 16 17 17 16 15 15 15 14 13 13 14 15 15 15 15 14 14 13 13 13 13 12 11 12 12 12 12 13 14 15 16 17 19 21 22 24 25 27 28 28 29 29
30 29 27 26 27 29 29 27 26 28 29 29 30 31 31 32 32 31 30 28 25 24 23 24 25 24 23 24 24 24 24 25 25 24 23 22 20 21 21 21 20 18 16 16 17 17 17 17 16 16 15 15 14 14 15 16 16 16 15 15 14 13 13 13 12 11 11 12 13 13 14 15 16 18 19 21 23 24 26 27 28 28 29 29 30
32 30 29 28 29 30 30 28 29 30 31 31 33 34 34 34 33 30 28 27 26 26 25 26 26 25 25 25 25 25 25 26 25 24 23 22 21 21 21 21 20 18 17 17 17 17 18 17 17 17 17 16 16 16 16 17 17 16 15 15 14 13 13 13 12 12 12 13 14 15 15 17 18 20 21 23 24 26 27 28 29 29 30 30 30
35 33 31 30 30 32 31 30 31 33 33 34 35 36 35 34 32 29 27 28 29 28 27 27 26 26 26 26 26 26 26 26 25 25 25 23 22 22 21 21 20 19 17 17 17 18 18 18 18 17 17 17 17 17 18 18 18 18 16 16 15 14 13 13 13 12 12 13 14 15 17 19 20 22 23 24 25 26 28 29 30 30 30 30 30
37 36 34 32 33 34 32 32 33 35 36 36 37 37 35 33 30 27 27 29 31 31 30 28 26 25 26 26 27 27 27 27 26 26 26 25 24 23 22 22 20 18 18 18 18 18 19 18 17 17 17 18 19 19 20 20 20 19 17 16 16 14 13 13 13 13 13 13 14 15 17 19 21 23 25 27 27 28 29 30 31 31 30 30 30
40 39 36 35 36 36 34 34 34 36 38 37 37 36 33 31 28 27 29 31 32 32 31 29 26 24 25 26 27 27 27 27 27 27 26 26 25 23 23 22 20 18 18 18 18 18 19 18 18 18 18 19 20 21 21 22 21 20 18 16 16 15 14 13 14 14 14 15 15 16 17 18 20 22 25 28 30 30 30 31 31 31 30 31 32
42 40 37 36 36 36 35 34 34 36 37 36 35 33 31 29 28 29 31 32 32 31 31 28 25 24 24 26 27 28 28 27 27 27 28 28 26 24 24 22 20 19 19 19 18 19 18 18 18 19 19 20 20 21 22 22 21 19 17 16 15 14 14 13 13 14 15 16 16 17 19 20 22 23 24 27 30 31 31 31 31 31 31 32 33
41 40 38 36 35 35 34 34 34 36 35 35 33 31 31 30 30 31 32 32 31 30 29 27 25 25 25 26 27 29 29 29 28 28 29 28 26 25 24 22 20 19 19 19 19 19 19 18 18 19 20 20 21 21 22 22 21 19 16 15 14 14 13 13 13 14 15 16 18 19 21 23 25 26 27 27 27 29 30 31 32 32 33 33 34
40 39 36 34 33 32 33 33 34 34 34 33 32 31 31 31 31 31 31 30 30 29 27 26 25 25 26 27 29 30 31 30 29 29 29 28 26 23 21 21 20 19 20 19 18 18 18 18 19 20 20 20 21 21 21 20 19 18 16 14 14 13 13 12 13 14 15 17 18 20 22 24 26 28 29 30 29 29 29 30 31 32 33 33 34
38 36 34 32 31 30 31 32 33 34 33 33 32 32 32 31 30 30 30 29 28 27 26 25 25 25 26 28 29 30 31 30 29 30 29 27 25 21 19 20 19 19 20 19 18 18 18 18 19 20 20 21 21 21 20 19 18 16 15 14 14 14 13 13 13 14 15 17 18 20 22 25 28 29 30 30 30 30 30 30 30 31 31 32 33
36 33 32 31 29 28 30 32 33 34 34 33 33 33 32 30 29 28 28 27 26 26 25 24 24 25 25 27 29 29 29 29 28 29 30 28 26 23 21 19 19 20 19 17 17 18 18 18 19 20 20 21 21 20 20 19 17 16 15 13 13 14 13 13 14 14 15 16 18 21 24 27 29 29 30 30 30 31 31 30 30 31 31 32 33
34 32 31 30 28 28 31 32 34 35 34 34 33 32 30 29 28 27 28 27 26 25 24 23 23 23 24 26 28 28 27 26 26 29 31 30 27 23 21 19 19 20 17 16 17 18 18 19 20 21 21 21 21 21 20 19 17 16 15 14 13 14 13 13 13 14 15 17 20 23 26 27 28 29 30 30 30 30 30 31 31 32 32 33 33
32 31 30 29 29 29 32 33 35 35 34 33 32 31 29 28 28 27 27 26 26 25 24 22 22 23 24 25 27 27 26 26 26 27 27 27 26 23 22 21 19 17 16 17 18 18 19 20 20 21 21 21 21 21 20 20 18 16 15 14 14 14 13 13 14 14 16 19 23 25 26 27 28 28 29 30 30 30 31 31 31 31 32 32 33
31 30 30 30 30 31 33 34 35 35 33 32 31 30 29 28 28 27 26 26 26 25 23 22 22 23 25 25 26 26 25 24 24 24 24 26 27 25 24 23 21 20 19 19 19 19 20 21 21 21 21 21 21 20 20 19 18 17 15 14 14 14 14 13 14 16 19 22 24 26 27 27 28 28 28 29 29 29 30 30 30 31 32 34 35
30 30 30 30 30 31 33 34 34 34 32 31 31 30 30 29 28 27 27 27 26 24 23 23 23 24 25 25 26 25 24 24 24 24 25 26 27 25 24 23 21 21 21 20 20 20 20 21 21 21 21 21 20 20 20 19 18 17 16 15 14 14 15 14 15 18 21 23 25 26 27 27 27 27 27 28 28 28 28 29 30 32 34 36 37
28 29 29 29 29 31 33 33 33 33 31 31 31 30 30 28 28 27 28 28 26 24 24 25 25 25 25 25 25 24 23 24 24 24 25 26 25 24 24 23 21 20 20 20 20 20 20 21 21 21 21 21 21 20 19 19 17 16 15 14 13 13 15 17 18 20 22 24 26 27 27 27 27 27 27 27 27 27 28 30 32 33 34 35 36
28 29 28 28 29 30 32 33 32 31 30 30 31 30 29 28 28 28 29 28 26 24 25 27 25 25 25 25 25 25 25 25 25 24 24 25 24 23 24 24 23 23 22 21 21 21 21 21 21 21 21 21 21 20 19 18 18 17 16 15 14 13 15 18 21 23 24 25 25 26 26 26 26 26 26 26 27 27 29 31 32 33 34 36 37
29 28 27 28 29 30 32 32 32 30 29 30 30 30 29 28 28 29 30 29 25 25 25 26 25 26 26 26 26 25 26 27 26 24 22 23 24 24 25 26 26 25 24 23 22 22 23 22 22 22 22 21 21 20 19 18 17 17 17 16 15 16 17 19 21 23 24 24 24 25 25 25 25 25 25 26 27 29 30 32 33 35 37 38 39
30 28 27 27 28 30 31 31 31 29 28 29 30 29 29 28 29 31 32 29 26 26 26 25 26 26 27 26 26 27 27 27 26 24 22 22 23 24 25 26 25 24 24 23 22 23 23 23 23 22 22 22 21 19 18 18 17 17 17 16 17 18 19 20 20 21 22 23 23 24 24 24 24 25 25 26 28 30 32 34 36 38 38 39 39
30 28 26 27 29 30 31 31 29 28 28 30 30 30 30 31 31 32 30 27 27 28 27 27 27 27 28 27 27 27 28 27 25 24 23 22 22 23 24 25 25 24 23 22 22 23 24 23 23 22 22 22 21 19 18 17 17 16 16 17 18 19 20 21 21 21 21 22 23 23 23 23 24 25 26 27 29 31 33 35 35 35 36 36 37
29 27 28 29 30 30 31 30 28 28 29 30 30 30 30 30 32 30 27 26 28 30 30 30 29 28 28 27 26 26 27 26 25 25 24 23 24 23 24 25 25 25 23 23 23 23 22 21 21 22 22 22 21 19 18 17 15 15 16 17 18 19 20 21 22 22 22 22 22 22 23 24 25 26 27 28 30 31 31 32 32 33 34 35 36
29 29 30 30 30 30 30 29 29 30 30 31 30 29 28 28 30 29 27 27 29 30 32 31 29 29 29 27 26 26 26 26 25 25 25 25 26 25 25 26 25 24 22 22 22 21 19 20 20 22 22 22 20 19 17 15 14 14 15 16 17 18 19 21 22 22 23 23 22 22 23 24 25 26 27 28 30 31 31 31 32 32 34 35 37
31 30 30 29 30 30 30 30 31 31 32 32 32 31 30 30 30 28 28 28 28 29 30 30 29 29 29 27 26 26 26 26 26 26 26 27 28 27 26 25 23 21 19 20 20 19 19 20 21 23 23 22 20 17 15 13 13 14 15 16 17 18 20 21 22 23 23 23 23 23 24 25 25 25 26 28 30 31 31 32 32 33 35 37 39
Wind_Direction
139 94 62 48 38 44 42 42 40 36 35 28 24 20 18 8 1 357 354 353 353 355 356 358 359 358 359 360 358 358 356 354 358 2 6 8 12 15 19 24 30 34 38 44 47 49 48 49 49 48 46 44 43 41 40 38 36 34 32 31 29 27 25 24 24 25 24 23 22 22 21 19 19 17 16 11 7 3 359 354 349 344 335 327 320
109 82 55 49 41 44 45 42 38 33 30 24 23 17 14 6 358 353 351 350 350 351 352 354 356 357 358 359 356 355 356 352 354 359 3 5 10 13 17 21 26 32 35 42 48 52 53 53 52 49 47 45 43 41 40 38 37 34 31 30 28 27 25 23 22 21 20 19 15 14 12 10 9 8 8 4 0 356 352 348 339 333 324 319 313
44 73 52 50 47 45 47 45 39 32 27 19 18 13 8 1 355 350 348 347 347 350 351 354 354 356 357 359 356 353 355 351 351 354 359 2 7 10 14 18 21 28 32 37 44 51 55 56 54 49 47 44 42 39 39 37 36 34 31 29 27 26 25 24 23 21 20 17 15 12 9 5 3 1 2 358 354 348 340 332 326 320 314 309 304
39 46 48 53 52 52 50 47 41 33 26 17 14 8 3 356 351 347 345 344 346 351 353 355 354 354 356 360 357 352 354 349 347 351 355 359 3 7 11 15 19 23 26 30 34 44 51 54 53 49 46 43 41 37 36 35 33 32 30 27 25 24 22 22 20 20 18 16 15 12 9 7 2 357 356 352 343 335 325 313 306 300 296 295 293
33 31 42 58 59 59 54 48 41 32 25 16 11 5 358 352 347 344 343 345 348 353 356 356 355 353 355 0 358 351 351 346 344 347 352 356 359 3 6 11 16 21 22 21 21 28 37 44 47 45 43 40 38 36 34 31 29 27 26 24 22 19 17 17 15 15 12 13 15 11 10 8 2 356 352 343 330 318 311 304 300 295 294 294 294
28 28 40 65 69 64 53 46 38 30 24 16 11 3 356 349 344 342 344 348 352 355 357 357 355 353 354 360 359 351 348 343 340 343 348 353 356 359 2 6 11 18 20 18 12 11 15 24 32 35 35 33 32 31 30 25 22 20 19 18 16 13 11 9 8 9 6 6 7 7 12 3 356 358 353 339 327 318 310 305 302 302 302 303 302
26 28 49 78 73 64 51 41 34 26 21 14 9 2 355 349 344 344 345 350 353 355 357 356 354 353 354 359 358 349 343 340 336 338 344 349 353 356 359 2 6 12 17 17 12 6 0 359 5 12 17 18 19 18 18 14 11 9 10 9 9 5 1 358 357 358 357 359 353 356 5 356 352 354 350 338 328 321 314 310 308 309 309 309 309
33 29 57 96 75 59 46 34 26 19 13 8 3 359 353 349 347 346 346 348 351 353 355 355 354 352 353 357 356 346 339 335 331 334 340 346 349 353 357 359 1 4 10 13 11 7 360 353 346 340 340 344 349 356 358 358 358 360 3 4 4 360 352 348 346 342 342 345 341 344 348 343 344 339 335 329 323 321 316 315 314 315 316 316 315
29 353 279 125 70 44 31 19 13 9 5 1 356 353 350 348 347 347 345 346 349 352 354 354 353 351 351 354 354 343 334 328 325 328 335 342 345 349 353 355 356 356 1 7 7 6 2 358 348 337 326 321 323 331 341 346 352 358 4 7 5 360 351 348 343 336 337 341 336 333 333 332 332 330 330 327 323 323 320 320 320 321 321 321 320
334 302 242 224 338 6 358 354 354 357 357 354 351 348 347 347 346 345 343 344 347 350 352 353 351 349 349 351 351 341 329 321 317 319 328 336 340 345 349 351 352 351 353 359 4 5 4 2 357 351 341 331 326 327 338 346 355 5 14 16 11 5 359 355 349 346 348 348 339 330 329 329 327 326 325 323 321 320 319 320 321 321 320 318 316
286 293 259 248 275 316 328 334 337 344 350 349 348 346 345 345 345 344 342 342 346 348 350 351 349 347 346 349 348 337 324 313 309 311 318 327 334 339 343 346 348 348 349 352 357 2 4 3 2 2 359 352 347 345 351 1 11 20 23 22 16 9 7 2 356 358 0 1 356 344 341 338 332 330 328 325 323 322 323 324 322 321 318 317 316
258 278 268 264 277 299 312 320 325 333 342 345 344 343 343 343 344 342 340 340 343 345 346 348 347 344 343 346 344 335 321 308 301 303 308 316 325 333 338 341 344 347 346 348 351 357 1 2 3 4 5 2 1 4 9 19 25 29 27 24 16 11 13 10 6 9 13 14 6 358 3 2 353 347 344 337 334 333 333 333 331 329 328 327 326
255 268 265 268 279 292 302 310 315 325 335 340 342 341 341 341 342 340 339 339 341 343 343 345 345 342 341 343 342 333 318 305 295 295 299 305 316 325 333 337 341 345 345 345 345 351 356 360 3 4 6 5 6 10 16 25 31 36 33 27 20 16 17 16 14 15 19 18 6 7 15 9 2 359 358 353 349 349 347 346 345 346 346 343 340
256 265 266 269 279 290 297 303 309 319 329 336 338 339 339 338 340 338 338 338 340 341 341 342 343 340 338 340 340 331 318 302 291 290 292 297 308 318 327 332 337 343 344 344 342 345 349 354 1 2 5 8 12 16 23 32 36 41 39 32 26 24 22 18 16 14 17 16 6 11 14 3 1 2 0 357 356 356 354 354 354 354 352 349 346
255 264 268 271 279 289 294 302 307 314 324 331 334 335 337 336 336 335 336 337 339 340 340 340 340 338 335 338 338 330 317 301 289 286 288 292 300 311 319 326 332 339 343 343 341 340 342 346 352 357 359 2 10 18 27 33 37 37 35 30 23 25 23 17 15 13 11 10 9 10 8 1 358 358 357 355 354 354 352 352 351 350 347 344 341
257 263 269 273 278 286 293 301 305 311 320 324 329 332 334 333 332 332 334 335 337 338 339 339 339 336 332 333 336 330 316 302 290 284 285 289 295 305 313 319 328 335 340 341 341 337 336 337 342 349 349 349 354 5 18 24 29 30 28 25 18 16 14 11 9 10 4 1 5 4 1 359 354 354 354 352 351 350 348 348 346 344 342 340 337
259 263 269 273 276 283 291 297 301 308 315 318 324 328 331 331 329 329 331 333 335 336 337 337 336 333 328 328 332 328 316 303 290 283 282 285 291 299 307 316 325 333 337 339 340 337 332 330 331 337 339 337 335 343 357 10 17 22 24 22 15 9 6 3 0 2 358 354 358 357 355 355 351 352 351 351 350 348 347 347 344 342 341 339 337
259 263 268 272 275 282 287 292 297 303 310 313 319 324 328 328 326 327 329 331 332 334 334 334 333 331 324 321 325 325 315 304 292 282 280 282 286 293 302 312 324 332 335 337 339 338 333 329 326 327 330 330 326 325 334 346 356 2 11 14 8 6 6 1 357 360 356 354 358 355 354 353 351 352 352 352 352 351 351 350 346 345 344 342 340
259 263 267 271 274 279 284 288 292 298 305 308 314 320 324 325 323 324 327 328 329 331 332 330 328 327 323 316 316 319 312 303 293 282 277 279 282 287 296 307 321 329 332 335 338 339 336 333 328 325 325 327 327 324 327 333 340 344 352 2 3 5 8 4 0 1 358 358 359 356 356 355 353 354 354 355 355 355 355 352 348 347 347 345 343
259 261 265 270 272 276 280 284 289 295 301 304 312 317 320 323 321 322 324 324 326 329 328 325 322 322 321 314 310 312 308 300 292 281 274 275 279 283 290 301 315 324 328 333 338 340 338 336 331 325 323 324 326 328 330 333 337 342 349 356 358 0 3 2 2 0 358 358 359 359 358 356 355 355 355 356 356 356 354 351 349 347 346 345 344
258 260 263 269 274 278 280 283 288 293 297 302 309 314 317 320 319 320 321 321 324 327 325 321 318 316 317 314 307 306 305 300 291 281 273 271 274 279 284 294 305 315 323 330 335 337 337 336 333 327 321 323 326 328 331 335 339 343 349 352 350 352 356 359 1 358 356 358 359 358 357 355 355 353 353 353 353 353 351 349 347 346 346 345 345
258 262 264 269 275 280 282 283 287 291 295 301 307 312 316 318 317 317 317 318 322 324 321 316 315 313 313 312 304 301 302 300 293 283 274 269 270 274 278 284 294 305 316 324 330 331 331 333 333 328 322 322 326 328 330 334 339 340 344 347 344 346 351 355 357 356 356 356 356 354 353 353 353 351 349 349 349 350 349 348 347 347 346 345 343
262 266 269 271 274 278 282 283 286 290 294 300 306 311 314 315 314 314 314 316 319 321 316 313 312 312 312 308 301 297 299 300 296 288 277 270 267 270 273 277 284 294 306 316 322 323 324 328 332 330 323 321 324 327 328 330 334 336 338 340 339 342 346 349 352 354 352 350 350 350 350 350 349 347 345 344 344 346 348 348 347 345 343 341 340
265 268 271 275 276 278 281 283 286 289 294 300 305 310 311 311 311 310 312 314 317 317 312 310 310 311 310 305 298 296 297 298 296 291 281 272 267 267 270 274 278 284 295 306 311 314 317 322 328 330 325 320 319 321 323 326 328 330 333 334 335 337 338 340 347 350 347 346 347 346 346 345 344 343 341 341 343 344 346 345 343 342 339 338 336
266 269 273 276 279 280 281 283 286 290 295 301 305 307 307 307 309 308 310 312 314 313 307 308 309 309 309 304 298 296 297 297 296 292 284 275 268 266 269 272 274 279 286 294 300 306 312 317 324 326 324 318 313 313 315 317 319 322 327 329 329 330 331 334 342 345 342 341 341 340 339 339 339 338 338 339 341 342 342 341 339 338 336 335 334
267 270 274 277 281 284 283 285 287 290 296 301 303 303 303 305 306 306 307 309 311 308 304 306 308 309 308 303 299 298 298 298 296 292 286 279 270 266 269 270 272 275 279 285 289 296 304 309 313 315 317 317 312 309 309 309 310 313 317 321 323 323 324 328 335 337 334 335 333 333 333 334 334 333 334 336 338 338 336 335 334 334 334 333 333
268 271 274 279 283 284 283 284 287 291 296 299 299 299 301 303 303 304 305 307 306 303 301 303 306 307 305 301 299 299 299 298 295 292 288 283 274 267 267 268 270 272 274 278 281 287 296 301 304 309 318 326 319 310 305 303 304 306 309 314 317 318 318 321 327 326 325 327 326 327 328 327 328 328 330 332 333 332 330 331 331 331 332 332 331
268 272 276 280 282 280 280 282 287 292 294 295 295 297 299 300 301 302 303 303 301 298 298 300 303 305 302 298 297 297 298 297 295 294 290 285 277 268 266 267 269 271 272 275 278 282 288 294 301 308 319 325 322 315 308 302 299 299 302 306 311 312 311 314 318 318 318 320 320 322 321 321 323 325 326 327 327 327 327 327 328 328 328 328 328
266 270 273 275 276 276 278 283 288 290 291 292 293 295 297 298 299 301 301 299 297 295 295 297 300 302 299 295 295 296 297 297 296 295 292 287 280 270 265 266 268 270 272 273 277 281 285 290 295 301 309 313 314 315 313 307 300 296 296 298 303 308 307 309 311 312 313 314 314 315 315 317 320 321 322 323 324 323 324 325 325 325 324 324 324
263 266 269 271 272 275 279 284 288 287 288 291 292 294 295 296 298 298 297 295 294 293 292 293 295 298 296 293 293 294 296 296 296 295 293 288 281 271 264 264 267 271 273 272 276 283 286 287 290 295 301 304 306 309 311 310 304 297 293 292 295 302 304 305 307 308 308 307 308 311 313 315 317 317 319 321 322 322 322 322 322 322 322 322 322
263 266 267 269 272 275 280 284 286 285 287 289 290 292 293 295 296 296 294 292 291 290 290 290 291 295 293 291 290 292 294 295 295 294 291 289 282 273 266 265 267 272 276 276 278 281 282 285 288 291 297 302 305 308 309 311 308 299 293 290 291 297 300 300 301 301 301 302 304 308 310 313 316 318 320 321 321 322 321 321 321 321 321 320 320
264 266 267 269 271 274 280 282 284 284 285 286 288 290 291 293 293 292 291 290 290 290 289 287 287 289 288 287 287 289 293 295 295 292 290 288 283 274 268 266 267 272 277 280 282 282 283 286 288 290 296 301 305 308 309 310 309 303 297 293 293 294 295 293 294 295 296 300 303 308 312 315 318 320 321 321 321 321 321 320 320 320 320 319 318
264 265 266 268 271 274 278 280 281 281 281 284 285 287 289 290 290 290 290 289 289 290 290 288 286 284 282 282 283 288 292 294 295 292 289 288 283 276 268 265 266 272 278 280 283 283 285 288 289 293 299 303 306 308 309 310 308 304 300 295 294 293 291 290 290 292 293 295 299 305 312 317 320 321 321 320 320 320 320 320 320 320 320 318 317
263 264 266 268 270 273 275 277 277 276 279 281 282 284 286 287 288 288 287 286 287 289 289 287 285 281 277 278 282 287 291 293 294 292 290 288 284 276 267 265 267 271 275 278 280 281 284 287 290 296 301 304 306 308 309 310 307 302 298 295 292 290 288 289 291 293 295 297 301 305 310 313 316 320 322 322 321 321 321 321 320 319 319 318 318
262 264 265 267 269 272 273 273 272 273 276 279 280 282 283 284 285 285 284 284 285 285 285 284 282 278 275 278 282 287 290 292 291 290 289 289 285 275 267 264 265 267 271 277 279 280 283 286 290 297 300 302 304 306 309 310 307 300 295 292 290 287 286 289 293 296 299 303 306 309 312 314 316 319 321 321 320 321 321 321 320 319 319 320 320
262 263 264 266 268 270 270 268 269 271 273 275 278 280 281 282 282 282 281 282 283 283 282 281 279 276 276 279 282 286 288 289 288 287 288 287 282 274 267 262 261 264 269 275 278 281 285 287 290 295 296 299 301 304 308 308 305 299 293 289 286 285 288 293 296 299 303 306 310 313 316 319 322 322 321 320 319 319 320 320 320 320 321 322 321
260 262 263 265 265 265 264 265 267 269 271 273 275 278 279 280 280 280 280 281 281 281 279 278 276 276 278 280 282 284 284 285 286 283 281 278 273 266 261 260 260 264 267 272 278 281 284 288 291 293 294 296 298 302 305 304 301 295 289 286 285 286 291 295 297 300 304 309 314 318 321 324 323 321 320 320 320 320 320 319 320 321 321 321 319
259 261 263 263 260 258 260 263 265 267 269 271 273 275 277 278 279 279 279 280 281 280 279 278 278 278 279 280 281 282 283 286 285 279 275 275 274 266 264 267 265 265 266 269 274 277 281 287 288 289 291 293 297 300 301 299 296 290 286 286 288 291 293 294 296 301 307 313 318 321 323 321 319 318 319 320 321 321 320 320 319 319 319 319 319
259 260 261 259 254 252 256 260 263 265 267 270 271 273 275 276 277 277 278 280 281 280 280 279 279 281 282 283 284 284 285 287 285 278 273 272 273 269 269 275 274 270 269 269 273 276 280 284 285 286 289 292 296 299 299 297 294 290 287 288 292 293 292 294 298 304 309 314 318 319 318 317 316 317 319 320 320 320 320 320 321 321 321 321 321
258 258 256 254 249 249 252 256 259 262 265 268 270 271 273 274 274 275 278 279 280 280 280 280 282 285 286 286 285 285 283 280 278 275 271 269 269 265 263 271 278 274 269 270 275 278 282 284 284 286 288 291 294 296 297 296 294 292 290 291 291 290 291 294 299 305 310 314 316 315 315 315 316 318 319 319 320 321 322 323 324 324 323 322 321
256 254 250 247 247 248 250 253 256 259 262 265 268 270 271 271 272 274 277 278 280 280 280 282 283 284 283 282 282 281 279 277 275 275 273 270 269 265 260 263 268 268 268 274 278 280 283 284 284 285 286 289 291 293 296 296 295 293 291 290 288 288 291 295 300 306 310 313 314 314 314 315 317 319 320 321 322 323 324 324 324 324 324 324 325
253 248 243 242 243 245 248 251 254 257 259 262 265 267 268 270 273 275 278 279 280 280 281 281 280 278 278 278 279 280 277 275 275 276 275 273 271 268 264 263 264 268 275 281 282 282 283 283 283 284 285 286 289 291 294 294 294 292 290 286 285 287 289 295 304 309 311 313 314 314 315 317 319 320 321 323 324 324 324 324 325 327 328 329 330
246 242 239 239 239 241 245 249 252 254 256 259 261 264 267 271 276 279 281 281 281 282 281 278 276 276 278 279 279 279 276 275 278 280 279 276 274 272 269 267 268 271 277 281 282 282 282 281 281 281 283 285 287 289 290 291 290 289 287 286 287 291 294 298 304 309 312 313 313 314 316 318 320 322 324 325 325 325 326 327 330 332 333 333 332
241 239 237 235 235 239 243 247 250 252 254 257 259 263 269 275 280 283 284 283 283 283 280 276 276 278 280 281 279 279 278 278 281 281 277 273 272 271 268 269 273 275 278 280 280 280 279 278 278 279 282 284 284 285 286 287 284 280 278 280 283 291 301 307 309 310 311 311 313 315 317 320 322 324 326 326 326 326 329 332 334 335 334 333 331
236 236 234 232 233 237 243 246 249 252 255 258 260 265 272 279 282 283 283 282 282 281 278 277 279 279 280 279 277 278 281 281 281 280 276 270 268 266 264 269 279 282 280 278 276 276 277 277 278 280 282 282 282 283 283 282 279 276 274 272 275 284 296 304 307 308 309 311 314 316 319 322 324 325 326 326 327 330 333 335 336 334 333 333 332
234 233 231 230 233 238 243 247 250 254 259 262 265 270 276 280 281 280 279 279 280 279 278 279 281 279 277 275 274 276 280 280 281 280 274 268 264 262 264 271 278 280 279 275 272 274 277 277 279 280 280 280 280 280 278 277 275 274 274 275 279 285 291 296 303 306 309 312 316 318 321 323 325 326 326 327 330 334 335 335 334 334 334 334 333
232 231 230 231 236 240 244 249 254 258 262 265 268 271 275 278 279 277 277 280 283 282 281 281 280 278 276 273 272 275 278 280 280 280 275 269 266 265 266 269 273 277 276 273 270 273 276 277 278 279 278 277 277 276 274 272 272 274 278 283 287 290 294 298 304 308 311 314 317 320 322 324 325 326 327 330 333 335 334 334 334 335 335 334 332
231 230 230 233 237 241 245 251 257 260 262 265 268 271 272 273 274 275 279 285 287 287 285 282 277 276 275 272 271 275 280 283 281 280 279 275 271 268 266 267 271 273 272 272 273 276 277 277 276 276 275 275 274 271 269 268 271 277 283 288 292 297 302 306 309 312 314 317 319 321 323 324 325 327 330 332 334 335 335 336 336 335 334 332 330
231 230 230 233 236 241 247 252 256 259 261 264 267 270 270 271 274 278 286 290 290 290 287 281 276 274 274 273 273 277 282 283 280 279 280 279 276 272 267 269 272 271 271 275 277 278 278 276 274 273 273 273 270 265 263 266 272 279 285 291 298 303 308 311 313 315 317 319 321 322 324 325 327 329 332 333 334 336 336 336 335 332 330 329 328
230 230 231 234 237 242 247 251 254 256 259 261 264 267 268 273 281 287 292 293 292 292 289 283 277 274 275 275 275 279 282 281 279 277 279 280 278 273 268 268 270 270 272 276 278 278 277 276 274 273 272 271 266 259 259 265 272 279 287 295 302 306 310 312 314 316 318 320 321 322 325 326 328 329 331 332 333 334 334 333 332 330 330 330 331
229 230 233 237 240 244 248 250 253 256 258 261 262 265 270 277 286 290 291 291 291 293 291 285 280 277 275 273 274 280 284 282 277 276 278 278 276 271 265 265 266 267 271 276 277 278 278 278 276 274 271 267 261 257 259 265 272 281 291 299 304 308 310 312 314 317 319 320 321 322 324 326 326 327 328 330 331 332 332 332 331 331 332 334 336
Height
5885 5886 5887 5887 5888 5888 5888 5888 5888 5887 5887 5887 5886 5886 5885 5885 5884 5883 5882 5881 5880 5879 5878 5877 5876 5875 5873 5872 5871 5870 5869 5869 5868 5867 5866 5865 5865 5863 5862 5861 5861 5860 5859 5859 5858 5857 5856 5856 5855 5854 5854 5853 5853 5852 5852 5852 5851 5851 5851 5851 5851 5851 5850 5850 5850 5850 5850 5849 5849 5849 5849 5849 5849 5848 5848 5848 5848 5848 5848 5848 5848 5848 5848 5848 5848
5886 5886 5887 5888 5888 5887 5888 5887 5887 5887 5887 5887 5886 5885 5885 5884 5883 5882 5881 5880 5880 5879 5878 5877 5875 5874 5873 5872 5871 5870 5869 5869 5868 5867 5866 5865 5865 5864 5863 5862 5861 5860 5860 5859 5858 5857 5857 5856 5855 5855 5854 5853 5853 5853 5852 5852 5852 5851 5851 5851 5851 5851 5851 5851 5850 5850 5850 5849 5849 5849 5849 5849 5849 5849 5849 5849 5848 5848 5848 5848 5848 5848 5847 5847 5847
5886 5886 5887 5887 5887 5887 5887 5887 5887 5886 5886 5886 5885 5885 5884 5884 5883 5882 5881 5880 5880 5879 5877 5876 5874 5873 5872 5871 5870 5869 5869 5869 5868 5867 5866 5865 5865 5864 5863 5862 5861 5860 5860 5859 5858 5858 5857 5856 5855 5855 5854 5854 5853 5853 5852 5852 5852 5852 5851 5851 5851 5851 5851 5851 5851 5851 5850 5850 5850 5850 5850 5849 5849 5849 5849 5849 5848 5848 5848 5848 5847 5847 5847 5846 5846
5886 5886 5886 5886 5887 5887 5886 5886 5886 5886 5886 5885 5885 5884 5884 5883 5883 5882 5881 5880 5879 5878 5877 5875 5874 5873 5872 5871 5870 5869 5869 5868 5868 5867 5866 5865 5865 5864 5863 5862 5861 5861 5860 5859 5859 5858 5857 5856 5856 5855 5854 5854 5853 5853 5853 5852 5852 5852 5852 5852 5852 5852 5852 5851 5851 5851 5851 5851 5850 5850 5850 5850 5850 5849 5849 5849 5848 5848 5848 5847 5847 5846 5846 5846 5846
5886 5886 5886 5886 5886 5886 5886 5886 5886 5885 5885 5885 5884 5884 5883 5883 5882 5882 5881 5880 5879 5877 5876 5875 5873 5872 5871 5870 5870 5869 5869 5868 5868 5867 5866 5865 5865 5864 5863 5863 5862 5861 5860 5860 5859 5858 5857 5856 5856 5855 5855 5854 5854 5853 5853 5853 5853 5853 5852 5852 5852 5852 5852 5852 5852 5851 5851 5851 5851 5851 5850 5850 5850 5850 5849 5849 5848 5848 5847 5847 5847 5846 5846 5846 5845
5885 5886 5886 5886 5886 5886 5886 5885 5885 5885 5885 5884 5884 5883 5883 5883 5882 5882 5881 5880 5878 5877 5876 5874 5873 5872 5871 5870 5870 5869 5868 5868 5868 5867 5866 5865 5865 5864 5863 5863 5862 5861 5860 5860 5859 5859 5858 5857 5856 5855 5855 5854 5854 5854 5853 5853 5853 5853 5853 5853 5852 5852 5852 5852 5852 5851 5851 5851 5851 5851 5851 5850 5850 5849 5849 5848 5848 5848 5847 5847 5846 5846 5846 5846 5845
5885 5885 5885 5886 5885 5885 5885 5885 5885 5884 5884 5884 5884 5883 5883 5882 5882 5881 5880 5879 5878 5876 5875 5874 5873 5871 5871 5870 5869 5869 5868 5868 5868 5867 5866 5866 5865 5864 5864 5863 5862 5862 5861 5860 5860 5859 5858 5857 5856 5856 5855 5855 5854 5854 5853 5853 5853 5853 5853 5852 5852 5852 5852 5852 5851 5851 5851 5851 5851 5851 5850 5850 5850 5849 5849 5848 5848 5847 5847 5847 5846 5846 5846 5845 5845
5884 5885 5885 5885 5885 5885 5884 5884 5884 5884 5884 5884 5883 5883 5882 5882 5880 5879 5879 5878 5877 5876 5875 5874 5873 5871 5870 5870 5869 5869 5868 5868 5867 5867 5866 5866 5865 5864 5864 5863 5862 5862 5861 5860 5860 5859 5858 5858 5857 5856 5855 5855 5854 5854 5854 5853 5853 5852 5852 5852 5852 5852 5851 5851 5851 5851 5851 5850 5850 5850 5850 5850 5849 5849 5848 5848 5847 5847 5847 5846 5846 5846 5845 5845 5845
5884 5885 5885 5885 5885 5884 5884 5884 5884 5884 5884 5883 5883 5882 5882 5881 5879 5878 5877 5877 5876 5876 5875 5874 5872 5871 5870 5869 5869 5868 5868 5867 5867 5867 5866 5866 5865 5864 5864 5863 5862 5862 5861 5861 5860 5859 5859 5858 5857 5856 5856 5855 5854 5854 5853 5853 5852 5852 5852 5852 5852 5851 5851 5851 5851 5850 5850 5850 5850 5850 5849 5849 5849 5848 5848 5848 5847 5847 5847 5846 5846 5846 5845 5845 5844
5884 5884 5884 5885 5884 5884 5884 5883 5883 5884 5884 5883 5883 5882 5881 5880 5879 5877 5877 5876 5876 5876 5875 5874 5873 5871 5870 5869 5869 5868 5867 5867 5867 5867 5866 5866 5865 5864 5864 5863 5862 5862 5861 5861 5860 5860 5859 5858 5857 5857 5856 5855 5854 5854 5853 5853 5852 5852 5852 5852 5851 5851 5851 5851 5850 5850 5850 5850 5850 5849 5849 5849 5848 5848 5848 5847 5847 5847 5846 5846 5846 5845 5845 5844 5844
5883 5883 5884 5884 5884 5883 5883 5883 5883 5883 5883 5883 5883 5882 5881 5879 5878 5877 5876 5876 5876 5876 5875 5874 5873 5871 5870 5869 5868 5868 5867 5867 5866 5866 5866 5866 5865 5864 5864 5863 5862 5862 5861 5861 5860 5860 5859 5858 5857 5857 5856 5855 5854 5854 5853 5853 5852 5852 5852 5852 5851 5851 5851 5850 5850 5850 5850 5849 5849 5849 5848 5848 5848 5848 5847 5847 5846 5846 5846 5846 5845 5845 5844 5844 5843
5882 5882 5883 5884 5883 5883 5883 5883 5883 5883 5883 5883 5882 5882 5880 5879 5878 5877 5876 5875 5875 5875 5875 5874 5873 5871 5870 5869 5868 5867 5867 5866 5866 5866 5866 5866 5865 5864 5864 5863 5862 5862 5861 5861 5860 5860 5859 5858 5858 5857 5856 5855 5854 5854 5853 5853 5852 5852 5852 5851 5851 5850 5850 5850 5850 5849 5849 5849 5848 5848 5848 5848 5848 5847 5847 5847 5846 5846 5846 5845 5845 5845 5844 5844 5843
5882 5881 5882 5883 5882 5882 5882 5882 5882 5882 5883 5882 5882 5881 5880 5879 5878 5877 5876 5875 5875 5875 5874 5874 5873 5871 5870 5869 5868 5867 5866 5866 5866 5866 5866 5865 5865 5864 5864 5863 5862 5862 5861 5861 5860 5860 5859 5859 5858 5857 5856 5855 5855 5854 5853 5853 5852 5852 5852 5851 5851 5850 5850 5850 5849 5849 5849 5848 5848 5848 5848 5848 5847 5847 5847 5846 5846 5846 5846 5845 5845 5845 5844 5843 5843
5881 5880 5880 5881 5881 5881 5881 5881 5881 5882 5882 5882 5881 5881 5879 5878 5877 5876 5876 5875 5874 5874 5874 5873 5872 5871 5870 5869 5868 5867 5866 5866 5865 5865 5865 5865 5865 5864 5864 5863 5862 5862 5861 5861 5860 5860 5859 5859 5859 5858 5857 5856 5855 5855 5854 5853 5853 5852 5852 5851 5850 5850 5850 5849 5849 5848 5848 5848 5848 5848 5848 5847 5847 5847 5846 5846 5846 5846 5845 5845 5845 5844 5844 5843 5842
5880 5879 5878 5879 5880 5880 5880 5880 5880 5881 5881 5881 5881 5880 5879 5878 5877 5876 5875 5874 5874 5874 5873 5873 5872 5871 5870 5868 5867 5866 5866 5865 5865 5865 5865 5864 5864 5864 5863 5863 5862 5862 5861 5861 5860 5860 5859 5859 5859 5858 5858 5857 5856 5855 5854 5854 5853 5852 5852 5851 5850 5850 5850 5849 5849 5848 5848 5848 5848 5847 5847 5847 5847 5846 5846 5846 5846 5845 5845 5845 5844 5843 5843 5842 5841
5878 5878 5877 5878 5879 5879 5879 5879 5879 5879 5880 5880 5880 5879 5879 5878 5877 5876 5875 5874 5873 5873 5873 5872 5871 5871 5870 5868 5867 5866 5865 5865 5865 5865 5865 5864 5864 5864 5863 5863 5862 5862 5861 5861 5860 5860 5859 5859 5859 5858 5858 5857 5856 5855 5855 5854 5853 5853 5852 5851 5850 5850 5849 5849 5848 5848 5847 5847 5848 5847 5847 5847 5847 5846 5846 5846 5846 5845 5845 5844 5843 5843 5842 5841 5840
5877 5877 5876 5876 5877 5877 5878 5878 5878 5878 5879 5879 5879 5879 5878 5877 5876 5875 5874 5874 5873 5873 5872 5872 5871 5870 5869 5868 5866 5865 5865 5864 5864 5865 5864 5864 5864 5863 5863 5862 5862 5861 5861 5860 5860 5859 5859 5859 5858 5858 5858 5857 5856 5855 5855 5854 5854 5853 5852 5852 5851 5850 5849 5849 5848 5848 5847 5847 5847 5847 5847 5847 5847 5846 5846 5846 5845 5845 5844 5844 5843 5842 5841 5840 5839
5874 5875 5875 5874 5876 5877 5877 5877 5877 5877 5877 5877 5878 5877 5877 5877 5876 5875 5874 5873 5872 5872 5872 5871 5871 5870 5869 5868 5866 5865 5864 5864 5864 5864 5864 5864 5864 5863 5863 5862 5862 5861 5860 5860 5859 5859 5858 5858 5857 5857 5857 5857 5856 5856 5855 5854 5854 5853 5853 5852 5851 5850 5850 5849 5848 5848 5848 5847 5847 5847 5847 5847 5846 5846 5846 5845 5845 5844 5844 5843 5842 5841 5841 5840 5839
5872 5873 5874 5873 5874 5876 5876 5875 5875 5876 5876 5876 5876 5876 5876 5876 5875 5874 5873 5872 5872 5871 5871 5870 5870 5869 5868 5867 5866 5865 5864 5863 5863 5863 5863 5863 5863 5863 5863 5862 5862 5861 5860 5860 5859 5858 5857 5857 5856 5856 5856 5856 5856 5855 5855 5854 5854 5853 5852 5852 5851 5851 5850 5849 5849 5848 5848 5847 5847 5846 5846 5846 5846 5846 5845 5845 5844 5844 5843 5842 5841 5840 5840 5839 5838
5870 5871 5872 5872 5873 5874 5875 5874 5874 5875 5875 5875 5875 5875 5875 5875 5874 5873 5872 5871 5871 5871 5870 5869 5869 5868 5868 5867 5865 5864 5863 5863 5862 5862 5863 5862 5863 5862 5862 5862 5862 5861 5860 5860 5859 5858 5857 5856 5856 5855 5855 5855 5855 5855 5855 5855 5854 5853 5852 5852 5851 5851 5850 5849 5848 5848 5847 5847 5847 5847 5846 5846 5846 5845 5845 5844 5844 5843 5842 5841 5841 5840 5839 5838 5837
5868 5869 5870 5870 5871 5872 5873 5873 5873 5873 5873 5873 5874 5873 5873 5873 5873 5872 5871 5870 5870 5870 5869 5868 5868 5867 5867 5866 5865 5864 5863 5862 5862 5861 5862 5862 5862 5862 5862 5862 5861 5861 5860 5860 5859 5858 5857 5856 5855 5855 5855 5855 5855 5855 5855 5855 5854 5853 5852 5852 5851 5850 5849 5849 5848 5847 5847 5847 5847 5846 5846 5846 5846 5845 5845 5844 5843 5843 5842 5841 5840 5839 5839 5838 5837
5865 5867 5868 5869 5870 5871 5871 5871 5871 5872 5871 5872 5872 5872 5872 5872 5871 5871 5870 5869 5869 5868 5868 5867 5866 5866 5865 5864 5863 5863 5863 5862 5861 5861 5861 5861 5861 5861 5861 5861 5861 5860 5860 5860 5859 5858 5857 5856 5855 5855 5854 5854 5854 5855 5855 5854 5854 5853 5852 5851 5851 5850 5849 5848 5848 5847 5847 5847 5846 5846 5846 5846 5845 5845 5844 5844 5843 5842 5842 5841 5840 5839 5838 5837 5836
5863 5864 5866 5867 5868 5869 5870 5869 5870 5870 5870 5870 5871 5870 5870 5870 5870 5869 5868 5868 5868 5867 5866 5865 5865 5864 5864 5863 5862 5862 5862 5861 5861 5861 5860 5860 5860 5860 5860 5860 5860 5860 5860 5859 5859 5858 5857 5856 5855 5854 5854 5853 5854 5854 5854 5854 5854 5853 5852 5851 5850 5849 5848 5848 5847 5847 5846 5846 5846 5846 5846 5845 5845 5844 5844 5843 5843 5842 5841 5840 5839 5838 5837 5836 5835
5861 5862 5863 5865 5867 5868 5868 5868 5868 5868 5868 5869 5869 5869 5869 5869 5869 5868 5867 5867 5866 5866 5865 5864 5863 5863 5862 5861 5860 5860 5861 5860 5860 5860 5860 5859 5860 5859 5859 5860 5860 5860 5859 5859 5858 5857 5856 5856 5855 5854 5853 5853 5853 5853 5853 5853 5853 5853 5852 5851 5850 5849 5848 5848 5847 5847 5846 5845 5845 5845 5845 5845 5844 5844 5843 5843 5842 5841 5840 5839 5838 5838 5837 5835 5834
5858 5859 5861 5862 5864 5865 5866 5866 5866 5866 5866 5867 5867 5867 5867 5867 5867 5866 5866 5865 5865 5864 5863 5863 5862 5861 5860 5860 5859 5859 5859 5859 5859 5859 5859 5858 5859 5859 5859 5859 5859 5859 5859 5858 5858 5856 5856 5855 5855 5854 5853 5852 5852 5852 5853 5853 5853 5852 5852 5851 5850 5849 5848 5848 5847 5846 5845 5845 5845 5845 5844 5844 5844 5843 5842 5842 5841 5840 5839 5839 5838 5837 5836 5835 5833
5856 5857 5859 5860 5862 5863 5863 5864 5864 5864 5863 5865 5865 5865 5865 5866 5866 5865 5864 5864 5863 5863 5861 5861 5860 5859 5859 5858 5858 5858 5858 5858 5858 5858 5857 5857 5857 5858 5858 5858 5858 5858 5858 5858 5857 5856 5855 5855 5855 5854 5853 5852 5851 5851 5852 5852 5852 5852 5851 5850 5849 5849 5848 5847 5847 5846 5845 5845 5844 5844 5844 5843 5843 5842 5841 5841 5840 5839 5838 5838 5837 5836 5834 5833 5832
5854 5856 5857 5858 5860 5860 5861 5862 5862 5862 5862 5863 5863 5863 5863 5864 5864 5863 5863 5862 5862 5861 5860 5860 5859 5858 5858 5857 5857 5857 5857 5856 5856 5856 5856 5856 5856 5857 5857 5857 5857 5857 5858 5857 5855 5855 5855 5854 5854 5854 5853 5852 5851 5851 5851 5851 5851 5851 5850 5849 5849 5848 5847 5847 5847 5846 5845 5845 5844 5843 5843 5842 5842 5841 5841 5840 5839 5838 5837 5836 5835 5834 5833 5831 5830
5852 5854 5856 5857 5858 5858 5859 5860 5861 5860 5860 5861 5861 5861 5861 5861 5861 5861 5861 5860 5860 5860 5859 5858 5858 5857 5857 5856 5856 5856 5855 5855 5855 5855 5855 5855 5855 5855 5855 5855 5855 5856 5857 5856 5854 5854 5854 5853 5853 5853 5852 5851 5851 5851 5851 5851 5850 5850 5849 5848 5848 5847 5847 5846 5846 5846 5845 5844 5844 5843 5842 5842 5841 5841 5840 5839 5838 5837 5836 5835 5834 5832 5831 5830 5828
5851 5853 5855 5856 5856 5855 5856 5858 5859 5858 5858 5858 5858 5859 5859 5859 5859 5859 5859 5858 5858 5859 5858 5857 5856 5856 5855 5855 5854 5854 5854 5854 5853 5853 5854 5854 5854 5854 5853 5854 5854 5854 5855 5855 5853 5853 5853 5852 5852 5852 5851 5850 5850 5850 5850 5850 5850 5849 5849 5847 5847 5846 5846 5846 5846 5845 5845 5844 5843 5843 5842 5841 5841 5840 5839 5838 5837 5836 5835 5834 5832 5831 5829 5828 5827
5849 5851 5853 5854 5854 5853 5854 5856 5857 5856 5856 5856 5856 5856 5857 5857 5857 5857 5856 5856 5856 5857 5856 5855 5854 5854 5854 5853 5853 5853 5852 5852 5852 5852 5852 5852 5852 5852 5852 5852 5852 5853 5853 5853 5852 5852 5851 5851 5851 5851 5850 5850 5850 5849 5849 5849 5849 5848 5848 5847 5846 5845 5845 5845 5845 5844 5844 5843 5842 5842 5841 5840 5840 5839 5838 5837 5836 5835 5834 5832 5831 5829 5828 5826 5825
5847 5849 5851 5852 5852 5851 5853 5854 5855 5854 5854 5854 5854 5854 5854 5854 5855 5855 5854 5854 5854 5855 5855 5854 5853 5853 5852 5852 5851 5851 5851 5850 5850 5850 5850 5850 5850 5850 5850 5850 5850 5851 5851 5851 5852 5851 5851 5850 5850 5850 5849 5849 5849 5848 5848 5848 5847 5847 5847 5846 5845 5844 5844 5844 5844 5843 5843 5843 5842 5841 5840 5840 5839 5838 5837 5836 5835 5833 5832 5830 5829 5828 5826 5825 5823
5845 5847 5848 5850 5850 5850 5851 5852 5852 5851 5851 5852 5852 5851 5852 5852 5853 5853 5852 5852 5852 5852 5853 5852 5852 5852 5851 5850 5849 5849 5849 5849 5849 5848 5848 5848 5848 5848 5848 5848 5848 5849 5849 5850 5850 5850 5849 5849 5849 5849 5848 5848 5848 5848 5847 5847 5846 5846 5845 5845 5844 5843 5842 5842 5842 5842 5842 5842 5841 5840 5839 5838 5837 5836 5835 5834 5833 5832 5830 5828 5827 5826 5824 5823 5821
5842 5844 5846 5848 5847 5848 5849 5850 5849 5848 5848 5849 5849 5849 5850 5850 5850 5851 5850 5850 5849 5849 5850 5849 5850 5850 5849 5848 5848 5847 5847 5847 5847 5846 5846 5846 5846 5846 5846 5846 5847 5848 5848 5848 5849 5848 5848 5849 5849 5848 5847 5847 5847 5846 5846 5845 5845 5844 5844 5843 5843 5842 5841 5841 5841 5841 5841 5841 5840 5840 5839 5837 5836 5835 5833 5832 5831 5830 5829 5827 5825 5824 5822 5820 5819
5840 5841 5844 5845 5845 5846 5847 5848 5847 5846 5846 5847 5847 5847 5847 5848 5848 5848 5848 5847 5847 5847 5847 5847 5847 5847 5847 5847 5846 5846 5845 5845 5845 5844 5844 5844 5843 5844 5843 5844 5845 5846 5846 5846 5847 5847 5847 5848 5848 5847 5846 5845 5845 5845 5845 5844 5843 5842 5842 5842 5842 5841 5840 5840 5840 5840 5839 5839 5839 5838 5838 5837 5836 5835 5832 5830 5828 5827 5826 5825 5823 5821 5820 5818 5816
5837 5838 5841 5843 5843 5844 5844 5845 5844 5843 5844 5844 5844 5845 5845 5845 5846 5846 5845 5845 5845 5845 5844 5844 5845 5845 5845 5845 5844 5844 5843 5844 5843 5843 5842 5841 5840 5841 5841 5842 5843 5844 5844 5845 5845 5846 5846 5847 5847 5846 5845 5844 5844 5844 5843 5843 5842 5841 5841 5840 5840 5840 5839 5839 5839 5838 5837 5837 5837 5836 5836 5835 5834 5834 5833 5830 5827 5824 5823 5822 5820 5819 5818 5816 5814
5834 5835 5838 5840 5841 5842 5841 5842 5841 5841 5841 5842 5842 5842 5843 5843 5843 5843 5842 5842 5842 5842 5841 5841 5842 5843 5843 5843 5842 5842 5841 5842 5841 5840 5839 5838 5837 5838 5838 5839 5840 5842 5843 5843 5844 5844 5845 5845 5845 5844 5843 5843 5843 5843 5842 5841 5840 5839 5839 5839 5839 5838 5838 5838 5837 5836 5836 5835 5835 5834 5834 5833 5831 5830 5830 5829 5827 5825 5822 5820 5818 5816 5815 5814 5812
5831 5832 5835 5837 5839 5839 5838 5838 5838 5838 5839 5839 5840 5840 5840 5840 5840 5840 5839 5840 5839 5839 5839 5839 5840 5840 5840 5840 5840 5839 5839 5839 5839 5838 5837 5837 5837 5837 5837 5836 5837 5839 5840 5841 5842 5843 5843 5843 5843 5843 5842 5841 5841 5841 5841 5840 5839 5838 5838 5838 5838 5837 5837 5836 5836 5835 5835 5834 5833 5832 5831 5830 5830 5828 5827 5825 5824 5823 5822 5820 5817 5815 5813 5811 5810
5828 5830 5833 5834 5836 5836 5835 5835 5835 5836 5836 5837 5837 5837 5837 5838 5838 5838 5837 5837 5837 5836 5837 5837 5837 5838 5838 5838 5837 5838 5837 5838 5839 5839 5838 5838 5838 5838 5838 5836 5836 5837 5838 5839 5841 5841 5842 5842 5842 5841 5840 5839 5839 5840 5839 5839 5838 5837 5837 5836 5836 5836 5836 5835 5835 5834 5834 5833 5832 5831 5830 5829 5828 5827 5825 5824 5822 5821 5819 5818 5816 5814 5812 5810 5808
5826 5828 5829 5831 5832 5833 5833 5833 5832 5833 5834 5834 5834 5835 5835 5835 5835 5835 5835 5835 5834 5834 5834 5834 5835 5835 5836 5836 5836 5837 5837 5838 5838 5837 5836 5836 5836 5837 5838 5837 5836 5836 5837 5838 5839 5839 5840 5840 5840 5839 5838 5838 5838 5838 5837 5837 5836 5835 5835 5835 5835 5834 5834 5834 5833 5833 5833 5832 5831 5830 5829 5828 5826 5825 5823 5822 5820 5819 5817 5816 5814 5812 5810 5808 5806
5823 5825 5826 5827 5829 5830 5830 5830 5830 5830 5831 5831 5832 5832 5833 5833 5833 5833 5832 5832 5832 5832 5832 5832 5833 5834 5835 5835 5835 5835 5835 5835 5834 5833 5832 5832 5833 5834 5835 5836 5836 5835 5835 5837 5837 5838 5838 5838 5838 5837 5837 5836 5836 5836 5835 5835 5834 5834 5834 5833 5833 5833 5833 5833 5832 5832 5831 5831 5830 5829 5828 5826 5825 5823 5822 5820 5818 5817 5815 5813 5811 5809 5807 5806 5804
5820 5822 5823 5824 5826 5827 5827 5827 5827 5827 5828 5829 5830 5830 5830 5830 5830 5830 5830 5829 5829 5829 5830 5831 5832 5832 5833 5833 5831 5831 5831 5831 5832 5831 5831 5830 5831 5832 5833 5834 5834 5834 5835 5836 5836 5836 5836 5836 5836 5836 5835 5835 5835 5834 5834 5833 5833 5832 5832 5832 5831 5831 5831 5831 5831 5831 5830 5829 5828 5827 5826 5825 5823 5822 5820 5818 5816 5814 5813 5811 5809 5807 5805 5803 5801
5817 5818 5820 5821 5823 5823 5823 5824 5824 5825 5826 5827 5828 5828 5828 5828 5827 5827 5827 5826 5827 5828 5829 5829 5830 5829 5829 5830 5828 5828 5829 5829 5830 5830 5829 5829 5829 5830 5831 5832 5832 5832 5833 5834 5834 5834 5834 5834 5834 5834 5833 5833 5833 5833 5832 5832 5831 5830 5830 5830 5830 5830 5830 5830 5830 5829 5828 5827 5826 5825 5824 5823 5822 5820 5818 5816 5814 5813 5811 5809 5807 5805 5803 5800 5798
5813 5815 5817 5818 5820 5820 5820 5821 5821 5822 5824 5825 5825 5825 5825 5825 5825 5824 5824 5824 5825 5826 5827 5827 5827 5827 5827 5828 5827 5827 5827 5827 5828 5828 5828 5828 5828 5829 5830 5831 5831 5830 5831 5831 5832 5832 5832 5832 5832 5832 5831 5831 5831 5831 5831 5830 5830 5829 5829 5829 5829 5828 5828 5829 5829 5828 5826 5825 5825 5824 5822 5821 5820 5818 5816 5814 5812 5811 5809 5807 5804 5802 5800 5797 5795
5810 5811 5814 5815 5817 5818 5817 5818 5819 5820 5821 5822 5823 5823 5823 5823 5823 5822 5822 5822 5823 5824 5824 5825 5825 5825 5825 5825 5825 5825 5826 5826 5826 5827 5827 5826 5827 5828 5828 5829 5829 5829 5829 5829 5830 5830 5830 5830 5830 5830 5829 5829 5829 5829 5829 5828 5828 5828 5828 5828 5828 5828 5827 5826 5826 5826 5825 5824 5823 5822 5820 5819 5817 5815 5814 5812 5810 5809 5806 5804 5802 5799 5797 5795 5792
5807 5808 5811 5813 5814 5815 5815 5816 5817 5818 5820 5820 5821 5821 5822 5821 5820 5820 5819 5819 5821 5823 5823 5823 5824 5823 5823 5823 5823 5823 5824 5824 5825 5825 5825 5824 5825 5826 5826 5827 5828 5828 5828 5828 5828 5828 5828 5828 5828 5828 5828 5827 5827 5827 5827 5827 5826 5826 5827 5827 5828 5828 5827 5825 5824 5823 5823 5822 5821 5820 5818 5817 5815 5813 5812 5810 5808 5806 5804 5801 5799 5797 5794 5792 5789
5804 5806 5808 5810 5812 5812 5813 5814 5815 5817 5818 5819 5819 5820 5820 5819 5818 5817 5816 5816 5819 5821 5821 5821 5822 5821 5820 5820 5820 5821 5822 5822 5822 5822 5823 5823 5823 5824 5825 5825 5826 5826 5826 5826 5826 5826 5826 5826 5826 5826 5826 5825 5825 5825 5825 5825 5824 5824 5825 5825 5826 5826 5825 5825 5824 5822 5821 5820 5819 5817 5816 5814 5813 5811 5809 5808 5806 5803 5801 5799 5797 5794 5791 5788 5785
5801 5803 5806 5809 5810 5810 5811 5812 5814 5816 5816 5816 5817 5817 5817 5816 5815 5814 5814 5815 5817 5818 5818 5819 5819 5818 5818 5818 5818 5819 5820 5820 5819 5820 5820 5821 5822 5823 5823 5824 5824 5824 5824 5824 5823 5823 5824 5824 5824 5824 5823 5823 5823 5823 5823 5823 5822 5823 5823 5823 5823 5823 5823 5822 5822 5821 5820 5818 5817 5815 5814 5812 5811 5809 5807 5805 5803 5800 5798 5796 5793 5790 5787 5785 5782
5799 5802 5805 5807 5807 5808 5809 5811 5812 5814 5814 5814 5814 5815 5814 5813 5812 5812 5814 5815 5815 5815 5815 5816 5816 5817 5816 5816 5817 5817 5817 5817 5817 5816 5817 5819 5819 5820 5821 5821 5821 5821 5821 5821 5821 5821 5821 5821 5821 5821 5821 5821 5821 5821 5821 5821 5821 5821 5821 5821 5821 5820 5820 5819 5819 5818 5817 5816 5814 5812 5811 5810 5808 5806 5804 5802 5800 5797 5795 5792 5790 5787 5785 5783 5780
5797 5800 5803 5804 5805 5807 5808 5809 5811 5811 5811 5812 5812 5812 5812 5811 5810 5811 5815 5816 5814 5813 5813 5813 5813 5814 5813 5814 5814 5815 5815 5815 5814 5814 5815 5816 5816 5817 5818 5818 5819 5819 5819 5819 5819 5819 5819 5819 5819 5819 5819 5819 5819 5819 5819 5819 5820 5820 5820 5819 5819 5818 5818 5816 5815 5815 5814 5813 5811 5810 5808 5806 5805 5803 5801 5799 5797 5795 5792 5790 5789 5786 5784 5781 5779
5795 5797 5799 5801 5804 5805 5806 5807 5808 5808 5809 5810 5811 5811 5811 5810 5810 5812 5814 5814 5813 5811 5810 5810 5810 5810 5810 5811 5811 5811 5812 5812 5811 5811 5812 5813 5813 5814 5815 5815 5816 5816 5817 5817 5817 5817 5817 5817 5817 5817 5817 5817 5817 5817 5818 5818 5819 5818 5818 5818 5817 5816 5815 5814 5813 5812 5811 5810 5809 5808 5806 5804 5802 5800 5798 5797 5795 5793 5791 5789 5787 5784 5781 5778 5775
5792 5794 5797 5800 5801 5802 5803 5804 5805 5806 5807 5808 5809 5810 5810 5810 5809 5810 5810 5810 5811 5810 5808 5807 5807 5808 5807 5808 5808 5808 5809 5809 5808 5809 5809 5810 5810 5811 5812 5812 5813 5814 5814 5815 5815 5815 5815 5815 5815 5815 5815 5815 5815 5816 5816 5817 5817 5817 5817 5816 5815 5814 5813 5812 5811 5810 5808 5807 5806 5805 5804 5802 5801 5799 5797 5795 5793 5791 5789 5787 5784 5781 5778 5774 5770